When you browse on this site, cookies collect data to enhance your experience and personalize the content and advertising you see.
Visit our Privacy Policy to learn more. By continuing to use the site, you agree to this use of cookies and data.
  • In Czech Republic
  • List of Countries
  • For 7 days
  • Water Temperature
  • Weather Map
  • Weather Widgets
  • user-avatar
    Login

    Hourly Weather Ali Bayramli

    Today, 1 April, Wednesday

    Time Temperature Precipitation Wind Pressure Humidity
    00:00 +12°C° 0 mm 3 mps 758 mmHg 74%
    01:00 +11°C° 0 mm 3 mps 758 mmHg 76%
    02:00 +11°C° 0 mm 3 mps 758 mmHg 78%
    03:00 +10°C° 0 mm 2 mps 757 mmHg 81%
    04:00 +10°C° 0 mm 2 mps 758 mmHg 82%
    05:00 +10°C° 0 mm 2 mps 758 mmHg 83%
    06:00 +10°C° 0 mm 2 mps 758 mmHg 84%
    07:00 +13°C° 0 mm 2 mps 758 mmHg 75%
    08:00 +15°C° 0 mm 2 mps 758 mmHg 67%
    09:00 +17°C° 0 mm 2 mps 758 mmHg 59%
    10:00 +18°C° 0 mm 3 mps 758 mmHg 54%
    11:00 +19°C° 0 mm 3 mps 757 mmHg 50%
    12:00 +21°C° 0 mm 4 mps 757 mmHg 45%
    13:00 +20°C° 0 mm 5 mps 757 mmHg 47%
    14:00 +20°C° 0 mm 6 mps 756 mmHg 49%
    15:00 +18°C° 0 mm 7 mps 756 mmHg 50%
    16:00 +17°C° 0 mm 7 mps 756 mmHg 55%
    17:00 +16°C° 0 mm 6 mps 756 mmHg 60%
    18:00 +15°C° 0 mm 6 mps 756 mmHg 66%
    19:00 +14°C° 0 mm 6 mps 756 mmHg 67%
    20:00 +14°C° 0 mm 6 mps 757 mmHg 69%
    21:00 +14°C° 0 mm 6 mps 757 mmHg 71%
    22:00 +14°C° 0 mm 6 mps 756 mmHg 72%
    23:00 +13°C° 0 mm 6 mps 756 mmHg 72%

    Tomorrow, 2 April, Thursday

    Time Temperature Precipitation Wind Pressure Humidity
    00:00 +13°C° 0 mm 6 mps 755 mmHg 72%
    01:00 +13°C° 0 mm 6 mps 755 mmHg 72%
    02:00 +12°C° 0 mm 7 mps 754 mmHg 73%
    03:00 +12°C° 0 mm 8 mps 754 mmHg 73%
    04:00 +11°C° 0 mm 7 mps 754 mmHg 76%
    05:00 +11°C° 0 mm 6 mps 754 mmHg 78%
    06:00 +11°C° 0 mm 6 mps 753 mmHg 81%
    07:00 +12°C° 0.2 mm 5 mps 754 mmHg 79%
    08:00 +13°C° 0.2 mm 4 mps 754 mmHg 77%
    09:00 +13°C° 0.2 mm 4 mps 754 mmHg 76%
    10:00 +14°C° 0.1 mm 4 mps 754 mmHg 74%
    11:00 +14°C° 0.1 mm 4 mps 754 mmHg 72%
    12:00 +14°C° 0.1 mm 5 mps 754 mmHg 70%
    13:00 +15°C° 0 mm 4 mps 755 mmHg 68%
    14:00 +15°C° 0 mm 4 mps 755 mmHg 65%
    15:00 +17°C° 0 mm 4 mps 755 mmHg 63%
    16:00 +15°C° 0 mm 4 mps 756 mmHg 65%
    17:00 +16°C° 0 mm 3 mps 757 mmHg 66%
    18:00 +14°C° 0 mm 3 mps 757 mmHg 68%
    19:00 +14°C° 0 mm 3 mps 758 mmHg 68%
    20:00 +13°C° 0 mm 3 mps 759 mmHg 67%
    21:00 +12°C° 0 mm 3 mps 759 mmHg 67%
    22:00 +12°C° 0 mm 3 mps 759 mmHg 66%
    23:00 +12°C° 0 mm 3 mps 759 mmHg 65%

    Day after tomorrow, 3 April, Friday

    Time Temperature Precipitation Wind Pressure Humidity
    00:00 +12°C° 0 mm 3 mps 759 mmHg 65%
    01:00 +11°C° 0 mm 3 mps 759 mmHg 66%
    02:00 +11°C° 0 mm 3 mps 759 mmHg 68%
    03:00 +10°C° 0 mm 3 mps 759 mmHg 70%
    04:00 +10°C° 0 mm 2 mps 759 mmHg 71%
    05:00 +10°C° 0 mm 2 mps 759 mmHg 73%
    06:00 +9°C° 0 mm 2 mps 759 mmHg 75%
    07:00 +12°C° 0 mm 2 mps 760 mmHg 70%
    08:00 +12°C° 0 mm 3 mps 760 mmHg 66%
    09:00 +13°C° 0 mm 3 mps 760 mmHg 62%
    10:00 +14°C° 0 mm 3 mps 760 mmHg 59%
    11:00 +14°C° 0 mm 4 mps 760 mmHg 56%
    12:00 +15°C° 0 mm 5 mps 759 mmHg 53%
    13:00 +15°C° 0 mm 5 mps 759 mmHg 54%
    14:00 +15°C° 0 mm 5 mps 759 mmHg 55%
    15:00 +15°C° 0 mm 5 mps 758 mmHg 55%
    16:00 +14°C° 0 mm 5 mps 758 mmHg 60%
    17:00 +13°C° 0 mm 5 mps 758 mmHg 65%
    18:00 +12°C° 0 mm 5 mps 759 mmHg 69%
    19:00 +11°C° 0 mm 4 mps 759 mmHg 72%
    20:00 +11°C° 0 mm 4 mps 760 mmHg 76%
    21:00 +10°C° 0 mm 3 mps 760 mmHg 79%
    22:00 +10°C° 0 mm 3 mps 760 mmHg 81%
    23:00 +10°C° 0 mm 2 mps 760 mmHg 83%

    4 April, Saturday

    Time Temperature Precipitation Wind Pressure Humidity
    00:00 +9°C° 0 mm 2 mps 759 mmHg 85%
    01:00 +9°C° 0 mm 2 mps 759 mmHg 86%
    02:00 +9°C° 0 mm 2 mps 759 mmHg 87%
    03:00 +9°C° 0 mm 2 mps 759 mmHg 88%
    04:00 +9°C° 0 mm 2 mps 759 mmHg 86%
    05:00 +9°C° 0 mm 2 mps 760 mmHg 85%
    06:00 +9°C° 0 mm 2 mps 760 mmHg 83%
    07:00 +12°C° 0 mm 2 mps 760 mmHg 77%
    08:00 +12°C° 0 mm 3 mps 761 mmHg 71%
    09:00 +13°C° 0 mm 3 mps 761 mmHg 65%
    10:00 +13°C° 0 mm 3 mps 761 mmHg 62%
    11:00 +14°C° 0 mm 3 mps 761 mmHg 58%
    12:00 +16°C° 0 mm 3 mps 761 mmHg 54%
    13:00 +16°C° 0 mm 3 mps 761 mmHg 53%
    14:00 +16°C° 0 mm 3 mps 761 mmHg 52%
    15:00 +17°C° 0 mm 3 mps 761 mmHg 52%
    16:00 +16°C° 0 mm 3 mps 762 mmHg 56%
    17:00 +14°C° 0 mm 3 mps 762 mmHg 61%
    18:00 +14°C° 0 mm 3 mps 762 mmHg 65%
    19:00 +13°C° 0 mm 3 mps 763 mmHg 68%
    20:00 +13°C° 0 mm 3 mps 764 mmHg 71%
    21:00 +13°C° 0 mm 2 mps 764 mmHg 74%
    22:00 +13°C° 0.1 mm 2 mps 764 mmHg 77%
    23:00 +13°C° 0.1 mm 2 mps 765 mmHg 80%

    5 April, Sunday

    Time Temperature Precipitation Wind Pressure Humidity
    00:00 +13°C° 0.1 mm 2 mps 765 mmHg 82%
    01:00 +11°C° 0 mm 3 mps 765 mmHg 84%
    02:00 +11°C° 0 mm 3 mps 765 mmHg 86%
    03:00 +11°C° 0 mm 3 mps 765 mmHg 88%
    04:00 +11°C° 0 mm 3 mps 765 mmHg 89%
    05:00 +10°C° 0 mm 3 mps 765 mmHg 90%
    06:00 +10°C° 0 mm 2 mps 765 mmHg 92%
    07:00 +13°C° 0 mm 2 mps 765 mmHg 82%
    08:00 +14°C° 0 mm 2 mps 765 mmHg 73%
    09:00 +16°C° 0 mm 2 mps 765 mmHg 64%
    10:00 +18°C° 0 mm 1 mps 765 mmHg 57%
    11:00 +19°C° 0 mm 1 mps 765 mmHg 51%
    12:00 +19°C° 0 mm 0 mps 765 mmHg 44%
    13:00 +21°C° 0 mm 1 mps 764 mmHg 43%
    14:00 +20°C° 0 mm 2 mps 764 mmHg 41%
    15:00 +21°C° 0 mm 3 mps 763 mmHg 40%
    16:00 +19°C° 0 mm 4 mps 763 mmHg 47%
    17:00 +18°C° 0 mm 4 mps 763 mmHg 54%
    18:00 +16°C° 0 mm 5 mps 762 mmHg 61%
    19:00 +15°C° 0 mm 4 mps 763 mmHg 64%
    20:00 +14°C° 0 mm 3 mps 763 mmHg 67%
    21:00 +13°C° 0 mm 3 mps 763 mmHg 71%
    22:00 +14°C° 0 mm 2 mps 763 mmHg 72%
    23:00 +13°C° 0 mm 2 mps 762 mmHg 74%

    6 April, Monday

    Time Temperature Precipitation Wind Pressure Humidity
    00:00 +13°C° 0 mm 2 mps 762 mmHg 76%
    01:00 +12°C° 0 mm 2 mps 761 mmHg 78%
    02:00 +12°C° 0 mm 2 mps 761 mmHg 79%
    03:00 +12°C° 0 mm 1 mps 760 mmHg 80%
    04:00 +12°C° 0 mm 1 mps 760 mmHg 81%
    05:00 +12°C° 0 mm 1 mps 760 mmHg 82%
    06:00 +12°C° 0 mm 1 mps 759 mmHg 83%
    07:00 +14°C° 0 mm 2 mps 759 mmHg 74%
    08:00 +15°C° 0 mm 2 mps 759 mmHg 66%
    09:00 +17°C° 0 mm 3 mps 759 mmHg 57%
    10:00 +18°C° 0 mm 3 mps 759 mmHg 53%
    11:00 +20°C° 0 mm 4 mps 758 mmHg 49%
    12:00 +21°C° 0 mm 4 mps 758 mmHg 46%
    13:00 +20°C° 0 mm 7 mps 758 mmHg 48%
    14:00 +18°C° 0 mm 9 mps 758 mmHg 51%
    15:00 +16°C° 0 mm 11 mps 758 mmHg 54%
    16:00 +13°C° 0 mm 13 mps 759 mmHg 54%
    17:00 +9°C° 0 mm 14 mps 759 mmHg 55%
    18:00 +5°C° 0 mm 15 mps 760 mmHg 55%
    19:00 +5°C° 0.3 mm 16 mps 761 mmHg 58%
    20:00 +4°C° 0.3 mm 16 mps 761 mmHg 61%
    21:00 +2°C° 0.3 mm 16 mps 762 mmHg 65%
    22:00 +1°C° 1.8 mm 16 mps 763 mmHg 65%
    23:00 +1°C° 1.8 mm 15 mps 763 mmHg 64%
    Show more